Starlink 32416

operational
NORAD ID: 61589 Int'l Des: 2024-187 Owner: SPXS Country: US Constellation: starlink
LEOCIRCULAR

Über Starlink 32416

Beschreibung wird geladen...

Live-Position

3D-Globus wird geladen...

Nächste Überflüge

Höhenverlauf

Altitude vs Time

uPlot chart will show altitude changes over time

Zweizeiliger Elementsatz

1 61589U 24187R 25259.99352245 -.00001382 00000-0 -24580-4 0 9992
2 61589 53.1606 142.3389 0001435 64.3942 295.7211 15.39614015 52620
Epoch: 16. Sept. 2025 • Age: 28 hours

Aktueller Status

Höhe 452.6 km
Geschwindigkeit 7.64 km/s
Subsatellitenpunkt -19.21°S, 67.74°E
Startdatum 18. Okt. 2024
Alter 0.9 years
Typ internet

Technische Details

Klassifizierung Payload
Masse 730.00 kg
Trockenmasse 700.00 kg
Gesamtmasse 730.00 kg
Länge 0.30 m
Durchmesser 4.10 m
Spannweite 29.00 m
Form Box + pan
Hersteller SPXS
Bus-Typ Starlink V2M
Phasenstatus In Orbit
Besitzer/Staat SPXS/US

Große Konstellationen

Loading constellations...